Flag for U.S.A. Weather past 2 weeks in Oceanside, California, U.S.A.

Now
67 °F

Overcast.


Feels Like: 67 °F
Forecast: 68 / 79 °F
Wind: 3 mph from Northwest

Location: Oceanside Weather Reporting Station

Current Time: Aug 2, 2014 at 2:33:38 AM

Latest Report: Aug 2, 2014 at 1:52 AM


Visibility: 9 mi

Pressure: 29.87 "Hg

Humidity: 85%

Dew point: 62 °F

Location of OceansideLocation

Historic Weather in Oceanside — Graph

°F

Oceanside temperature yesterday

Maximum temperature yesterday: 78 °F (at 1:52 PM)
Minimum temperature yesterday: 68 °F (at 11:52 PM)
Average temperature yesterday: 72 °F

Past Weeks' High & Low Weather Summary

 TemperatureHumidityPressure
High84 °F (Jul 28, 12:52 PM)97% (Jul 21, 3:52 AM)30.06 "Hg (Jul 21, 3:52 AM)
Low56 °F (Jul 21, 5:52 AM)37% (Jul 29, 1:52 PM)29.73 "Hg (Jul 24, 5:52 PM)
Average71 °F76%29.94 "Hg
* Reported Jul 18 12:52 AM — Aug 2 12:52 AM, Oceanside, Weather by CustomWeather, © 2014

Note: Actual official high and low records may vary slightly from our data, if they occured in-between our weather recording intervals... More about our weather records

Advertising

Oceanside weather history for previous 24 hours

 ConditionsComfort  
Time TempWeatherWind HumidityBarometerVisibility
12:52 AM
Aug 2
68 °FOvercast.No wind84%29.88 "Hg9 mi
11:52 PM
Aug 1
68 °FOvercast.No wind84%29.89 "Hg9 mi
10:52 PM69 °FClear.3 mph84%29.89 "Hg9 mi
9:52 PM69 °FClear.No wind81%29.90 "Hg9 mi
8:52 PM70 °FClear.No wind79%29.88 "Hg9 mi
7:52 PM70 °FSunny.6 mph79%29.86 "Hg8 mi
6:52 PM72 °FSunny.5 mph73%29.87 "Hg8 mi
5:52 PM73 °FSunny.6 mph71%29.86 "Hg9 mi
2:52 PM76 °FSunny.12 mph67%29.90 "Hg9 mi
1:52 PM78 °FSunny.9 mph62%29.89 "Hg8 mi
12:52 PM76 °FSunny.9 mph67%29.90 "Hg9 mi
11:52 AM77 °FSunny.7 mph64%29.91 "Hg9 mi
10:52 AM77 °FSunny.8 mph66%29.92 "Hg8 mi
9:52 AM76 °FSunny.6 mph67%29.91 "Hg8 mi
9:01 AM73 °FScattered clouds.No wind74%29.91 "Hg8 mi
7:52 AM71 °FOvercast.No wind78%29.91 "Hg8 mi
6:52 AM70 °FOvercast.No wind81%29.90 "Hg7 mi
5:52 AM70 °FOvercast.No wind81%29.90 "Hg9 mi
4:52 AM70 °FOvercast.No wind81%29.88 "Hg9 mi
3:52 AM70 °FOvercast.5 mph81%29.90 "Hg10 mi
2:52 AM70 °FOvercast.No wind81%29.90 "Hg10 mi
Weather by CustomWeather, © 2014

See weather overviewHow to use our weather pages